Regional Weather Roundup
Issued by NWS Charleston, SC

Home | Current Version | Previous Version | Text Only | Print | Product List | Glossary On
Versions: 1 2 3 4 5 6 7 8 9 10 11 12 13 14 15 16 17 18 19 20 21 22 23 24 25 26 27 28 29 30 31 32 33 34 35 36 37 38 39 40 41 42 43 44 45 46 47 48 49 50
000
ASUS42 KCHS 310727
RWRCHS

REGIONAL WEATHER ROUNDUP
NATIONAL WEATHER SERVICE CHARLESTON SC
300 AM EDT FRI JUL 31 2015

NOTE: "FAIR" INDICATES FEW OR NO CLOUDS BELOW 12,000 FEET WITH NO
SIGNIFICANT WEATHER AND/OR OBSTRUCTIONS TO VISIBILITY.

NOT ALL STATIONS ARE QUALITY CONTROLLED BY THE NATIONAL
WEATHER SERVICE. USE DATA WITH CAUTION...ESPECIALLY
DEWPOINT OBSERVATIONS.

SCZ027-030-031-034>040-042>050-310800-
...SOUTHEAST SOUTH CAROLINA...

CITY           SKY/WX    TMP DP  RH WIND       PRES   REMARKS
N CHARLESTON   PTCLDY    80  72  76 SW8       29.89F
WATERFRONT PRK   N/A     82  75  79 SW7       29.87F
MOUNT PLEASANT LGT RAIN  81  75  83 SW7       29.89S
JOHNS ISLAND   FAIR      81  75  83 SW9       29.88F
PINOPOLIS      NOT AVBL
MONCKS CORNER  FAIR      79  73  83 CALM      29.88F
SUMMERVILLE    NOT AVBL
BEAUFORT MCAS  PTCLDY    80  76  87 SW18G24   29.90F
BEAUFORT ARPT  FAIR      79  77  94 SW8       29.88F
HILTON HEAD IS DRIZZLE   79  79 100 S7        29.90F
WALTERBORO     SUNNY     79  73  83 SW5       29.90S
ALLENDALE      FAIR      77  77 100 CALM      29.89S

...SOUTHERN MIDLANDS AND PEE DEE...

CITY           SKY/WX    TMP DP  RH WIND       PRES   REMARKS
GEORGETOWN     NOT AVBL
KINGSTREE      NOT AVBL
ORANGEBURG     PTCLDY    77  74  90 CALM      29.90S
BARNWELL       FAIR      79  77  94 CALM      29.90F
AIKEN          PTSUNNY   77  72  83 NW6       29.95R
MANNING        FAIR      77  72  83 CALM      29.88F
COLUMBIA       PTCLDY    80  73  79 W3        29.89S
SUMTER         PTCLDY    79  73  81 W3        29.87
FLORENCE       PTCLDY    80  74  81 W6        29.88F
MYRTLE BEACH   CLOUDY    81  72  74 W5        29.88F
N MYRTLE BEACH CLOUDY    81  74  79 W5        29.86F

$$

GAZ063-065-086>088-099>101-113>116-118-119-134>141-150-310800-
...SOUTHEAST GEORGIA...

CITY           SKY/WX    TMP DP  RH WIND       PRES   REMARKS
SAVANNAH ARPT  MOCLDY    79  75  87 S5        29.91F
HUNTER AAF     MOCLDY    81  78  90 VRB5      29.88F
FORT STEWART   MOCLDY    80  74  82 SW7       29.88F
STATESBORO     PTCLDY    78  32  18 CALM      29.89F
SYLVANIA       SUNNY     79  77  92 CALM      29.90F
CLAXTON        FAIR      79  77  94 CALM      29.90F

...CSRA...CENTRAL AND FAR SOUTHEAST GEORGIA...

CITY           SKY/WX    TMP DP  RH WIND       PRES   REMARKS
THOMSON        CLEAR     77  77  98 CALM      29.95R
AUGUSTA-BUSH   CLEAR     76  75  97 CALM      29.89S
AUGUSTA-DANIEL CLEAR     80  74  81 VRB3      29.91S
SWAINSBORO     FAIR     N/A N/A N/A CALM      29.92F
VIDALIA        MOCLDY    79  75  89 SW6       29.91F
EASTMAN        FAIR      76  76 100 CALM      29.94S FOG
HAZLEHURST     FAIR      79  79  98 CALM      29.91S
ALMA           MOCLDY    77  76  96 CALM      29.91F
WAYCROSS       PTCLDY    80  80 100 W5        29.91F
JESUP          FAIR      79  77  94 CALM      29.91F
BAXLEY         FAIR      79  77  94 CALM      29.91F
BRUNSWICK      PTCLDY    79  77  94 SW7       29.92F
SAINT SIMONS   PTCLDY    79  75  87 SW6       29.92S

$$

SCZ027-028-034-036>038-045-046-048>050-GAZ119-141-310800-
...LAKE AND SUPPLEMENTAL COASTAL OBSERVATIONS...

STATION/POSITION TIME  TEMP    WIND        PRES    WAVE   SWELL
                       AIR SEA DIR/SP/G            HT/PER HT/PER/DIR
                 (UTC) (F)     (DEG/KT/KT) (MB)    (FT/S) (FT/S/D)
UPR LAKE MARION  NOT AVBL
WINYAH BAY       0600   80     260/  3     1011.0F
LAKE MURRAY      0600   83     300/  2/  5 1011.9F
ACE BASIN NERRS  NOT AVBL
FORT PULASKI     0700   81 87  230/  3/  5 1012.7F
SAPELO ISLAND    0600   82     250/  6     1013.0F

$$

ANZ835-935-AMZ111-154-330-350-352-354-370-450-454-472-310800-
...C-MAN AND BUOY OBSERVATIONS...

STATION/POSITION TIME  TEMP    WIND        PRES    WAVE   SWELL
                       AIR SEA DIR/SP/G            HT/PER HT/PER/DIR
                 (UTC) (F)     (DEG/KT/KT) (MB)    (FT/S) (FT/S/D)
BUOY 41004       0650   83 84  250/ 14/ 17 1011.8F   3/ 8   2/ 8
BUOY 41008       0650   83 83  250/ 10/ 12 1012.8F   2/ 4   2/ 90/ 7
FOLLY BEACH CMAN 0700   81     230/  9/ 13 1012.3F
CAPERS NEARSHORE 0608   83     230/ 12/ 17 1012.7F
FRIPP NEARSHORE  0600   81     230/ 17/ 19 1012.6F


STATION/POSITION TIME  TEMP    WIND        PRES    WAVE   SWELL
                       AIR SEA DIR/SP/G            HT/PER HT/PER/DIR
                 (UTC) (F)     (DEG/KT/KT) (MB)    (FT/S) (FT/S/D)
5E ST. MARYS GA  0621      84                N/A     2/ 8
FRYING PAN BUOY  0650   84 84  290/  8/ 10 1011.8F   4/ 8   3/140/ 8
BUOY 41025       0650   83 85  150/  8/ 12 1011.5F   5/ 7   5/160/ 7
CAPE LOOKOUT NC  0700   81        CALM     1010.9F
BUOY 41002       0650   79 81  240/ 23/ 31 1013.0F  11/ 9   2/300/14
BUOY 41010       0620   83 84  230/ 14/ 17 1015.3R
ST AUGUSTINE FL  0700   76 82  240/  6/  7 1014.7F


$$


USA.gov is the U.S. government's official web portal to all federal, state and local government web resources and services.